Regional Weather Roundup
Issued by NWS

Home | Current Version | Previous Version | Text Only | Print | Product List | Glossary Off
Versions: 1 2 3 4 5 6 7 8 9 10 11 12 13 14 15 16 17 18 19 20 21 22 23 24 25 26 27 28 29 30 31 32 33 34 35 36 37 38 39 40 41 42 43 44 45 46 47 48 49 50

000
ASUS43 KOAX 190802
RWRNE

WEATHER ROUNDUP FOR NEBRASKA
NATIONAL WEATHER SERVICE OMAHA NE
300 AM CDT SAT APR 19 2014

NOTES: SATELLITE DATA IS BEING USED TO AUGMENT CLOUD COVER ABOVE
       12000 FEET.
       "FAIR" INDICATES FEW OR NO CLOUDS BELOW 12,000 FEET WITH NO
       SIGNIFICANT WEATHER AND/OR OBSTRUCTIONS TO VISIBILITY.

  * THESE STATIONS DO NOT REPORT WEATHER SUCH AS RAIN...SNOW OR FOG.

NEZ001>004-019>022-054>056-190900-
NEBRASKA PANHANDLE

CITY           SKY/WX    TMP DP  RH WIND       PRES   REMARKS
SCOTTSBLUFF    CLOUDY    54  36  50 NW7       29.86S
ALLIANCE       CLOUDY    49  36  61 CALM      29.84S
CHADRON        CLOUDY    55  40  56 N21       29.88R
KIMBALL        CLOUDY    53  32  45 NW8       29.89S
SIDNEY         CLOUDY    55  40  56 W9        29.87R
$$

NEZ057>060-069>072-079>082-190900-
SOUTHWEST NEBRASKA

CITY           SKY/WX    TMP DP  RH WIND       PRES   REMARKS
NORTH PLATTE   MOCLDY    54  41  61 S15G22    29.87F
IMPERIAL       CLOUDY    53  42  66 E8        29.86S
LEXINGTON      MOCLDY    54  44  68 SE18      29.90F
MCCOOK         CLOUDY    55  44  66 S12       29.90S
OGALLALA       CLOUDY    56  42  60 S6        29.84S
$$

NEZ005>010-023>029-035>040-094-190900-
NORTH CENTRAL NEBRASKA

CITY           SKY/WX    TMP DP  RH WIND       PRES   REMARKS
VALENTINE      CLOUDY    59  43  55 SW10      29.84S
AINSWORTH      CLOUDY    59  42  54 S24G31    29.80F
BROKEN BOW     MOCLDY    54  43  66 S18G26    29.90S
O`NEILL        MOCLDY    59  40  50 S22G31    29.86F
ORD            MOCLDY    56  41  57 S16G23    29.90S
THEDFORD       MOCLDY    59  41  50 S21G29    29.82F
$$

NEZ041-046>049-061>064-073>077-083>087-190900-
SOUTH CENTRAL NEBRASKA

CITY           SKY/WX    TMP DP  RH WIND       PRES   REMARKS
GRAND ISLAND   PTCLDY    54  41  61 S16       29.96F
AURORA         PTCLDY    55  41  60 S18G25    29.98F
HASTINGS       PTCLDY    55  40  56 S13G22    29.98F
HEBRON         PTCLDY    56  40  54 S16       30.03F
HOLDREGE       MOCLDY    54  43  66 S20       29.93F
KEARNEY *      MOCLDY    54  43  66 S20       29.95F
YORK           CLEAR     54  41  62 S18G24    30.00F
$$

NEZ011>018-030>034-042>045-190900-
NORTHEAST NEBRASKA

CITY           SKY/WX    TMP DP  RH WIND       PRES   REMARKS
NORFOLK        CLEAR     57  40  52 S18G29    29.95R
ALBION         PTCLDY    55  40  56 S18G24    29.95R
BLAIR          CLEAR     56  40  56 S21       30.03F
COLUMBUS *     CLEAR     55  37  50 S23G29    29.97F
FREMONT        CLEAR     55  40  56 S16G25    30.01F
TEKAMAH        PTCLDY    57  41  55 S18       30.02S
$$

NEZ050>053-065>068-078-088>093-190900-
SOUTHEAST NEBRASKA

CITY           SKY/WX    TMP DP  RH WIND       PRES   REMARKS
LINCOLN        CLEAR     55  39  54 S15       30.05F
OMAHA EPPLEY   PTCLDY    54  40  59 S17       30.05F
BEATRICE       CLEAR     54  39  58 SE14      30.06F
FALLS CITY     CLEAR     49  41  74 SE10      30.11F
NEBRASKA CITY  CLEAR     53  41  64 S14       30.09F
PLATTSMOUTH    CLEAR     55  39  56 S16       30.07F
$$

NEZ044-045-051>053-067-190900-
OMAHA AREA

CITY           SKY/WX    TMP DP  RH WIND       PRES   REMARKS
OMAHA EPPLEY   PTCLDY    54  40  59 S17       30.05F
BLAIR          CLEAR     56  40  56 S21       30.03F
FREMONT        CLEAR     55  40  56 S16G25    30.01F
MILLARD        CLEAR     56  41  56 S13G18    30.05F
OFFUTT AFB     CLEAR     55  42  62 SE14      30.06F
PLATTSMOUTH    CLEAR     55  39  56 S16       30.07F
WAHOO          FAIR      53  39  60 S15       30.03F
$$



USA.gov is the U.S. government's official web portal to all federal, state and local government web resources and services.